7 * 24
多渠道服务支持
STARLINK-36927(NORAD编号67941)是美国SpaceX公司星链(Starlink)星座的低轨通信卫星,属于星链卫星网络的组成部分,运行于近地轨道,为全球提供高速低延迟互联网接入服务。 该卫星配备相控阵天线与激光星间链路技术,可同时对接地面信关站和多用户终端,大幅提升通信容量与频谱利用率,属于星链迭代后的新一代卫星产品。依托低轨部署,它有效降低通信延迟,支撑全球偏远地区、移动场景的网络覆盖,是SpaceX构建全球卫星互联网的重要节点,目前在轨正常运行。
美国
(US)
| 数据来源 | 国际轨道数据 |
| 星历时间: | 2026-06-12T08:00:03+0800 1天前 查看轨道信息 |
| 半长轴: | 6861.29km |
| 偏心率: | 0.0001472 |
| 轨道倾角: | 43.004° |
| 近地点辐角 | 278.222° |
| 升交点赤经 | 17.908° |
| 平近点角 | 188.114° |
| 近地点: | 482.143km |
| 远地点: | 484.163km |
| 周期: | 94.269分钟 |
| 每日圈数: | 15.275456 |